Regional Weather Roundup
Issued by NWS Charleston, SC

Current Version | Previous Version | Graphics & Text | Print | Product List | Glossary On
Versions: 1 2 3 4 5 6 7 8 9 10 11 12 13 14 15 16 17 18 19 20 21 22 23 24 25 26 27 28 29 30 31 32 33 34 35 36 37 38 39 40 41 42 43 44 45 46 47 48 49 50
000
ASUS42 KCHS 231427
RWRCHS

Regional Weather Roundup
National Weather Service Charleston SC
900 AM EST FRI FEB 23 2018

NOTE: "fair" indicates few or no clouds below 12,000 feet with no
significant weather and/or obstructions to visibility.

Not all stations are quality controlled. Use data with caution,
especially dewpoint observations.

SCZ027-030-031-034>040-042>050-231500-
...Southeast South Carolina...

CITY           SKY/WX    TMP DP  RH WIND       PRES   REMARKS
N Charleston   FAIR      69  65  86 E3        30.45S
Waterfront Prk   N/A     64  63  96 VRB3      30.31R
Mount Pleasant FAIR      72  66  83 CALM      30.46R
Johns Island   FAIR      72  68  88 CALM      30.45S
Pinopolis        N/A     61  61 100 VRB2      30.36S
Moncks Corner  PTSUNNY   66  64  94 CALM      30.46R
Summerville    FAIR      64  63  94 CALM      30.47R
Beaufort MCAS  FAIR      68  68 100 N3        30.44S
Beaufort Arpt  FAIR      68  66  94 E3        30.45R
Hilton Head Is NOT AVBL
Walterboro     PTSUNNY   64  63  94 SE3       30.47R
Allendale      FOG       61  61 100 CALM      30.45R VSB 3/4

...Southern Midlands and Pee Dee...

CITY           SKY/WX    TMP DP  RH WIND       PRES   REMARKS
Georgetown     FAIR      68  66  94 CALM      30.47S
Kingstree      FAIR      63  61  94 CALM      30.47R
Orangeburg     NOT AVBL
Barnwell         N/A     64  64 100 CALM      30.45F
Aiken          CLOUDY    63  63 100 CALM      30.48S FOG
Manning        PTSUNNY   63  59  88 MISG      30.46S
Columbia       FAIR      65  62  90 CALM      30.45S FOG
Sumter         SUNNY     61  61 100 CALM      30.45R
Florence       FAIR      63  62  97 SE3       30.48R
Myrtle Beach   FAIR      66  65  96 NE3       30.48S
N Myrtle Beach PTSUNNY   64  64 100 NE3       30.47S

$$

GAZ063-065-086>088-099>101-113>116-118-119-134>141-150-231500-
...Southeast Georgia...

CITY           SKY/WX    TMP DP  RH WIND       PRES   REMARKS
Savannah Arpt  FOG       66  66 100 CALM      30.45R VSB 1/2
Hunter AAF     FAIR      67  66  97 E3        30.41S
Fort Stewart   MOSUNNY   63  63 100 CALM      30.42R
Statesboro     FOG       63  32  31 CALM      30.45S VSB<1/4
Sylvania       FAIR      65  65 100 CALM      30.46R
Claxton        FOG       63  63  99 CALM      30.45R VSB<1/4

...CSRA, Central and far Southeast Georgia...

CITY           SKY/WX    TMP DP  RH WIND       PRES   REMARKS
Thomson        CLOUDY    63  62  99 SW6       30.49S FOG
Augusta-Bush   FOG       63  63 100 E3        30.44S VSB 1
Augusta-Daniel FOG       64  62  93 SE3       30.45S VSB 1/4
Swainsboro     FOG       63  63 100 CALM      30.45S VSB<1/4
Vidalia        FOG       63  63 100 CALM      30.44S VSB<1/4
Eastman        HAZE      64  58  80 S5        30.45S VSB 1
Hazlehurst     FOG       65  64  97 CALM      30.42S VSB 1/2
Alma           CLOUDY    64  63  96 CALM      30.42R FOG
Waycross       FAIR      66  63  90 CALM      30.42S
Jesup          FAIR      66  64  94 CALM      30.43S
Baxley         FOG       61  61 100 CALM      30.43R VSB 1/2
Brunswick      FAIR      68  66  94 E5        30.43S
Saint Simons   FAIR      71  67  87 E5        30.42S

$$

SCZ027-028-034-036>038-045-046-048>050-GAZ119-141-231500-
...Lake and Supplemental Coastal Observations...

STATION/POSITION TIME  TEMP    WIND        PRES    WAVE   SWELL
                       AIR SEA DIR/SP/G            HT/PER HT/PER/DIR
                 (UTC) (F)     (DEG/KT/KT) (MB)    (FT/S) (FT/S/D)
Winyah Bay       1345   68      70/  2     1032.0R
Lake Murray      1350   61     150/  3/  5 1030.5S
ACE Basin NERRS  1345   67        CALM     1031.0S
Fort Pulaski     1400   64 63  100/  5/  5 1031.0
Sapelo Island    1400   71     100/  3     1030.0

$$

ANZ835-935-AMZ111-154-330-350-352-354-370-450-454-472-231500-
...C-MAN and Buoy Observations...

STATION/POSITION TIME  TEMP    WIND        PRES    WAVE   SWELL
                       AIR SEA DIR/SP/G            HT/PER HT/PER/DIR
                 (UTC) (F)     (DEG/KT/KT) (MB)    (FT/S) (FT/S/D)
Buoy 41004       1410   70 68  230/  4/  6 1031.2
Buoy 41008       1350   64 58   90/  6/  6 1030.1R   4/ 9   3/130/ 9
Folly Beach CMAN 1400   64      20/  3/  4 1031.6R
Capers Nearshore 1308   60 60   50/  4/  8 1030.8R
Fripp Nearshore  1408   63 61   60/  4/  6 1028.9F


STATION/POSITION TIME  TEMP    WIND        PRES    WAVE   SWELL
                       AIR SEA DIR/SP/G            HT/PER HT/PER/DIR
                 (UTC) (F)     (DEG/KT/KT) (MB)    (FT/S) (FT/S/D)
5E St. Marys GA  1400      64                N/A     3/ 9   2/ 90/17
Frying Pan Buoy  1410   72 71  350/  2/  4 1032.0
Buoy 41025       1410   60 74   20/ 10/ 12 1032.7
Cape Lookout NC  1400           40/ 13/ 15 1033.0R
Buoy 41002       1350   72 73  120/ 10/ 12 1032.2R   5/ 9   5/110/ 9
Buoy 41010       NOT AVBL
St Augustine FL  1400   70 68   70/  4/  5 1030.0R


$$



USA.gov is the U.S. government's official web portal to all federal, state and local government web resources and services.